Regional Weather Roundup
Issued by NWS

Home | Current Version | Previous Version | Text Only | Print | Product List | Glossary Off
Versions: 1 2 3 4 5 6 7 8 9 10 11 12 13 14 15 16 17 18 19 20 21 22 23 24 25 26 27 28 29 30 31 32 33 34 35 36 37 38 39 40 41 42 43 44 45 46 47 48 49 50

000
ASUS45 KCYS 222010
RWRWY

WYOMING REGIONAL WEATHER ROUNDUP
NATIONAL WEATHER SERVICE CHEYENNE WY
200 PM MDT THU JUN 22 2017

NOTE:  "FAIR" INDICATES FEW OR NO CLOUDS BELOW 12,000 FEET
WITH NO SIGNIFICANT WEATHER AND/OR OBSTRUCTIONS TO VISIBILITY.

WYZ001-222100-
YELLOWSTONE NATIONAL PARK

CITY           SKY/WX    TMP DP  RH WIND       PRES   REMARKS
LK YELLOWSTONE   N/A     61  17  18 SW8       30.19F
W YELLOWSTONE  NOT AVBL

$$
WYZ002>013-054>058-071-098>099-222100-
NORTHERN WYOMING

CITY           SKY/WX    TMP DP  RH WIND       PRES   REMARKS
JACKSON        SUNNY     70  21  16 SW9G21    30.13S
CODY           FAIR      69  33  26 N13G22    30.05F
GREYBULL       FAIR      78  25  14 N17G25    29.95F
WORLAND        FAIR      78  32  18 N10       29.96F
SHERIDAN       FAIR      72  40  31 N7        30.01S
BUFFALO        FAIR      67  39  35 MISG      30.05S
GILLETTE       FAIR      70  35  27 N10       30.00S
NEWCASTLE      FAIR      72  32  23 NW13G26   29.98S

$$
WYZ014>020-022>026-101>103-222100-
CENTRAL WYOMING

CITY           SKY/WX    TMP DP  RH WIND       PRES   REMARKS
BIG PINEY      FAIR      76  25  15 N17G26    30.12F
PINEDALE       FAIR      72  28  20 NW16G24   30.13F
DUBOIS         FAIR      70  18  13 N17G30    30.09S
LANDER         FAIR      76  39  26 N6        30.00S
RIVERTON       FAIR      74  31  20 SE5       29.99F
CASPER         FAIR      73  36  25 VRB6      30.01F
DOUGLAS        FAIR      73  39  29 N9        30.01F

$$
WYZ021-027>030-104>119-222100-
SOUTHERN WYOMING

CITY           SKY/WX    TMP DP  RH WIND       PRES   REMARKS
EVANSTON       FAIR      76  32  20 W20G28    30.17F
KEMMERER         N/A     73  30  20 W15       30.17S
FORT BRIDGER   FAIR      80  28  15 NW20G26   30.16F
ROCK SPRINGS   FAIR      81  20  10 W29G36    30.06F
DIXON          FAIR      86  28  12 W16G31    30.05F
RAWLINS        FAIR      81  33  17 W18G24    30.04F
SARATOGA       FAIR      82  27  13 W23G30    30.07S
LARAMIE        FAIR      80  38  22 NW17      30.04F
CHEYENNE       FAIR      75  41  29 N18G25    30.01R
TORRINGTON     FAIR      81  33  17 N14G20    29.91F
PINE BLUFFS    FAIR      79  34  19 NE15G24   29.97R

$$



USA.gov is the U.S. government's official web portal to all federal, state and local government web resources and services.